KC2ASA Weather Reports


Display with metric or nautical units.
time (UTC)temp
F
wind
direction
speed
MPH
gust
MPH
rain 1hr
in
rain 24hr
in
rain mn
in
humidity
%
barometer
mb
20260906133106 67 36 0.0 3.0 0.00 0.00 0.00 83 1015.4
20260906131540 68 30 1.0 2.0 0.00 0.00 0.00 85 1015.4
20260906130038 67 61 0.0 0.0 0.00 0.00 0.00 88 1015.2
20260906124533 66 61 0.0 0.0 0.00 0.00 0.00 91 1015.2
20260906123032 66 61 0.0 0.0 0.00 0.00 0.00 97 1015.2
20260906121528 62 61 0.0 0.0 0.00 0.00 0.00 97 1015.3
20260906120022 59 61 0.0 0.0 0.00 0.00 0.00 97 1015.0
20260906114519 0 0.0 0.0 0.00 0.00 0.00 1014.9
20260906113014 0 0.0 0.0 0.00 0.00 0.00 1014.8
20260906111509 0 0.0 0.0 0.00 0.00 0.00 1014.6
20260906110007 0 0.0 0.0 0.00 0.00 0.00 1014.4
20260906104505 0 0.0 0.0 0.00 0.00 0.00 1014.3
20260906103057 0 0.0 0.0 0.00 0.00 0.00 1014.0
20260906101554 0 0.0 0.0 0.00 0.00 0.00 1013.9
20260906100049 0 0.0 0.0 0.00 0.00 0.00 1013.9
20260906094544 0 0.0 0.0 0.00 0.00 0.00 1013.5
20260906093039 0 0.0 0.0 0.00 0.00 0.00 1013.4
20260906091536 0 0.0 0.0 0.00 0.00 0.00 1013.2
20260906090031 0 0.0 0.0 0.00 0.00 0.00 1013.2
20260906084527 0 0.0 0.0 0.00 0.00 0.00 1013.2
20260906083022 0 0.0 0.0 0.00 0.00 0.00 1013.0
20260906081517 0 0.0 0.0 0.00 0.00 0.00 1012.8
20260906080015 0 0.0 0.0 0.00 0.00 0.00 1012.8
20260906074509 0 0.0 0.0 0.00 0.00 0.00 1012.9
20260906073008 0 0.0 0.0 0.00 0.00 0.00 1012.9
20260906071600 0 0.0 0.0 0.00 0.00 0.00 1012.8
20260906070057 0 0.0 0.0 0.00 0.00 0.00 1012.8
20260906064552 0 0.0 0.0 0.00 0.00 0.00 1012.8
20260906063047 0 0.0 0.0 0.00 0.00 0.00 1012.8
20260906061543 0 0.0 0.0 0.00 0.00 0.00 1012.9
20260906060039 0 0.0 0.0 0.00 0.00 0.00 1013.1
20260906054535 0 0.0 0.0 0.00 0.00 0.00 1013.1
20260906053031 0 0.0 0.0 0.00 0.00 0.00 1013.0
20260906051532 0 0.0 0.0 0.00 0.00 0.00 1013.2
20260906050025 0 0.0 0.0 0.00 0.00 0.00 1013.2
20260906044521 0 0.0 0.0 0.00 0.00 0.00 1013.1
20260906043014 0 0.0 0.0 0.00 0.00 0.00 1013.1
20260906041509 0 0.0 0.0 0.00 0.00 0.00 1012.9
20260906040008 0 0.0 0.0 0.00 0.00 0.00 1013.0
20260906034600 0 0.0 0.0 0.00 0.00 0.00 1012.8
20260906033108 62 61 0.0 0.0 0.00 0.00 0.00 93 1012.9
20260906031559 62 60 0.0 0.0 0.00 0.00 0.00 93 1012.7
20260906030056 63 60 0.0 0.0 0.00 0.00 0.00 93 1012.6
20260906024607 63 61 0.0 0.0 0.00 0.00 0.00 93 1012.7
20260906023057 63 60 0.0 0.0 0.00 0.00 0.00 93 1012.7
20260906021555 63 61 0.0 0.0 0.00 0.00 0.00 93 1012.6
20260906020055 64 60 0.0 0.0 0.00 0.00 0.00 93 1012.5
20260906014557 64 61 0.0 0.0 0.00 0.00 0.00 93 1012.5
20260906013050 64 60 0.0 0.0 0.00 0.00 0.00 93 1012.3
20260906011548 64 60 0.0 0.0 0.00 0.00 0.00 93 1012.2
20260906010047 64 60 0.0 0.0 0.00 0.00 0.00 92 1012.1
20260906004547 65 61 0.0 0.0 0.00 0.00 0.00 92 1011.9
20260906003046 65 60 0.0 0.0 0.00 0.00 0.00 91 1011.7
20260906001546 66 61 0.0 0.0 0.00 0.00 0.00 90 1011.5
20260906000045 67 61 0.0 0.0 0.00 0.00 0.00 89 1011.4
20260905234552 68 61 0.0 0.0 0.00 0.00 0.00 88 1011.1
20260905233044 69 60 0.0 0.0 0.00 0.00 0.00 87 1011.2
20260905231547 70 61 0.0 0.0 0.00 0.00 0.00 85 1011.2
20260905230101 71 61 0.0 0.0 0.00 0.00 0.00 84 1011.2
20260905224543 72 61 0.0 0.0 0.00 0.00 0.00 82 1011.0
20260905223042 72 61 0.0 0.0 0.00 0.00 0.00 78 1010.8
20260905221541 73 61 0.0 1.0 0.00 0.00 0.00 74 1010.7
20260905220041 74 27 0.0 0.0 0.00 0.00 0.00 76 1010.6
20260905214541 74 27 0.0 1.0 0.00 0.00 0.00 72 1010.6
20260905213039 75 27 0.0 1.0 0.00 0.00 0.00 71 1010.5
20260905211541 75 27 0.0 0.0 0.00 0.00 0.00 70 1010.5
20260905210040 75 27 0.0 0.0 0.00 0.00 0.00 69 1010.4
20260905204538 75 27 0.0 2.0 0.00 0.00 0.00 68 1010.3
20260905203041 75 24 2.0 6.0 0.00 0.00 0.00 66 1010.2
20260905201538 75 61 0.0 5.0 0.00 0.00 0.00 66 1010.2
20260905200038 75 40 0.0 3.0 0.00 0.00 0.00 67 1010.2
20260905194537 75 53 1.0 4.0 0.00 0.00 0.00 66 1010.2
20260905193048 76 84 0.0 1.0 0.00 0.00 0.00 68 1010.1
20260905191536 75 55 0.0 1.0 0.00 0.00 0.00 69 1010.3
20260905190034 76 56 1.0 2.0 0.00 0.00 0.00 64 1010.3
20260905184533 76 77 0.0 2.0 0.00 0.00 0.00 65 1010.5
20260905183032 76 36 1.0 6.0 0.00 0.00 0.00 63 1010.5
20260905181532 76 40 2.0 7.0 0.00 0.00 0.00 62 1010.5
20260905180031 76 352 1.0 6.0 0.00 0.00 0.00 63 1010.6
20260905174530 76 30 2.0 5.0 0.00 0.00 0.00 62 1010.7
20260905173029 77 22 0.0 5.0 0.00 0.00 0.00 63 1010.8
20260905171534 76 61 0.0 3.0 0.00 0.00 0.00 65 1011.0
20260905170028 76 51 1.0 5.0 0.00 0.00 0.00 61 1011.2
20260905164528 77 19 2.0 6.0 0.00 0.00 0.00 61 1011.2
20260905163026 77 39 1.0 4.0 0.00 0.00 0.00 64 1011.3
20260905161524 75 49 1.0 3.0 0.00 0.00 0.00 65 1011.3
20260905160028 75 33 1.0 5.0 0.00 0.00 0.00 65 1011.4
20260905154524 75 19 1.0 4.0 0.00 0.00 0.00 64 1011.5
20260905153022 76 46 1.0 6.0 0.00 0.00 0.00 63 1011.5
20260905151520 75 56 1.0 6.0 0.00 0.00 0.00 67 1011.4
20260905150020 75 72 2.0 7.0 0.00 0.00 0.00 67 1011.5
20260905144519 74 200 0.0 4.0 0.00 0.00 0.00 72 1011.6
20260905143018 73 48 4.0 8.0 0.00 0.00 0.00 70 1011.4
20260905141514 73 68 3.0 7.0 0.00 0.00 0.00 71 1011.6
20260905140012 73 30 1.0 7.0 0.00 0.00 0.00 74 1011.5
20260905134510 72 40 3.0 6.0 0.00 0.00 0.00 75 1011.5